QPF
0.04 0.04 0.05 0.06 0.05 0.04 0.04 0.04 0.04 0.03 0.03 0.04 0.07 0.07 0.09 0.10 0.09 0.10 0.09 0.08 0.07 0.06 0.05 0.03 0.02 0.02 0.02 0.01 0.01 0.02 0.02 0.02 0.03 0.03 0.03 0.02 0.02 0.02
0.05 0.05 0.04 0.05 0.05 0.05 0.05 0.06 0.06 0.04 0.03 0.03 0.05 0.05 0.07 0.08 0.08 0.06 0.04 0.05 0.05 0.05 0.04 0.03 0.02 0.01 0.01 0.01 0.01 0.01 0.01 0.01 0.02 0.02 0.02 0.02 0.02 0.02
0.05 0.05 0.06 0.06 0.06 0.06 0.07 0.09 0.07 0.05 0.03 0.03 0.04 0.04 0.05 0.06 0.06 0.05 0.03 0.03 0.03 0.03 0.02 0.02 0.01 0.01 0.00 0.00 0.00 0.00 0.01 0.01 0.01 0.01 0.02 0.02 0.02 0.02
0.05 0.05 0.06 0.07 0.07 0.08 0.08 0.08 0.06 0.04 0.03 0.04 0.03 0.03 0.04 0.05 0.05 0.04 0.03 0.02 0.02 0.02 0.01 0.02 0.02 0.01 0.01 0.01 0.01 0.01 0.02 0.02 0.02 0.03 0.03 0.03 0.03 0.03
0.06 0.04 0.04 0.06 0.06 0.05 0.04 0.05 0.05 0.05 0.05 0.05 0.03 0.02 0.02 0.02 0.04 0.04 0.03 0.02 0.01 0.01 0.01 0.00 0.00 0.00 0.00 0.00 0.01 0.01 0.01 0.02 0.03 0.03 0.03 0.03 0.03 0.02
0.06 0.04 0.04 0.05 0.05 0.04 0.03 0.04 0.04 0.04 0.04 0.02 0.02 0.02 0.01 0.02 0.01 0.01 0.01 0.01 0.01 0.00 0.00 0.00 0.00 0.00 0.00 0.00 0.00 0.00 0.00 0.01 0.01 0.01 0.01 0.01 0.01 0.01
0.06 0.05 0.06 0.07 0.06 0.04 0.03 0.03 0.05 0.07 0.06 0.04 0.03 0.02 0.02 0.02 0.02 0.02 0.01 0.01 0.00 0.00 0.00 0.00 0.00 0.00 0.00 0.00 0.00 0.00 0.00 0.00 0.00 0.00 0.00 0.00 0.00 0.01
0.08 0.07 0.06 0.06 0.06 0.04 0.04 0.04 0.04 0.06 0.07 0.05 0.04 0.03 0.03 0.02 0.02 0.02 0.02 0.02 0.01 0.01 0.00 0.00 0.00 0.00 0.00 0.00 0.00 0.00 0.00 0.00 0.00 0.00 0.00 0.00 0.00 0.00
0.08 0.06 0.05 0.06 0.06 0.04 0.05 0.04 0.04 0.04 0.04 0.04 0.04 0.03 0.03 0.02 0.01 0.01 0.01 0.01 0.01 0.00 0.00 0.00 0.00 0.00 0.00 0.00 0.00 0.00 0.00 0.00 0.00 0.00 0.00 0.00 0.00 0.00
0.08 0.07 0.06 0.05 0.05 0.04 0.05 0.04 0.04 0.04 0.04 0.04 0.04 0.03 0.02 0.02 0.01 0.01 0.00 0.00 0.00 0.00 0.00 0.00 0.00 0.00 0.00 0.00 0.00 0.00 0.00 0.00 0.00 0.00 0.00 0.00 0.00 0.00
0.10 0.08 0.06 0.05 0.04 0.05 0.05 0.05 0.04 0.05 0.04 0.04 0.04 0.03 0.03 0.02 0.01 0.01 0.01 0.01 0.00 0.00 0.00 0.00 0.00 0.00 0.00 0.00 0.00 0.00 0.00 0.00 0.00 0.00 0.00 0.00 0.00 0.00
0.11 0.10 0.10 0.08 0.07 0.05 0.04 0.05 0.05 0.04 0.04 0.04 0.04 0.03 0.03 0.02 0.01 0.01 0.01 0.01 0.00 0.00 0.00 0.00 0.00 0.00 0.00 0.00 0.01 0.00 0.00 0.00 0.00 0.00 0.00 0.00 0.00 0.00
0.08 0.08 0.08 0.08 0.06 0.05 0.04 0.03 0.04 0.03 0.02 0.02 0.02 0.02 0.02 0.02 0.02 0.01 0.01 0.01 0.00 0.00 0.00 0.00 0.01 0.01 0.01 0.01 0.01 0.00 0.00 0.00 0.00 0.00 0.00 0.00 0.00 0.00
0.06 0.05 0.05 0.05 0.04 0.03 0.03 0.02 0.02 0.02 0.02 0.02 0.02 0.02 0.01 0.01 0.01 0.01 0.01 0.01 0.01 0.01 0.01 0.01 0.02 0.02 0.01 0.01 0.00 0.00 0.00 0.00 0.00 0.00 0.00 0.00 0.00 0.00
0.04 0.04 0.03 0.03 0.02 0.02 0.02 0.03 0.03 0.03 0.03 0.03 0.03 0.03 0.03 0.02 0.02 0.02 0.02 0.02 0.03 0.03 0.03 0.02 0.02 0.01 0.01 0.00 0.00 0.00 0.00 0.00 0.00 0.00 0.00 0.00 0.00 0.01
0.03 0.03 0.03 0.02 0.02 0.03 0.04 0.04 0.04 0.05 0.06 0.06 0.06 0.06 0.05 0.04 0.04 0.04 0.04 0.04 0.03 0.03 0.03 0.02 0.01 0.01 0.00 0.00 0.00 0.00 0.00 0.00 0.00 0.00 0.00 0.00 0.00 0.00
0.02 0.02 0.02 0.02 0.02 0.03 0.03 0.03 0.04 0.05 0.05 0.06 0.06 0.05 0.05 0.04 0.04 0.03 0.03 0.03 0.03 0.02 0.02 0.01 0.01 0.00 0.00 0.00 0.00 0.00 0.00 0.00 0.00 0.00 0.00 0.00 0.00 0.00
0.02 0.01 0.02 0.03 0.02 0.02 0.02 0.02 0.02 0.02 0.03 0.03 0.03 0.04 0.03 0.03 0.03 0.03 0.02 0.02 0.02 0.01 0.01 0.00 0.00 0.00 0.00 0.00 0.00 0.00 0.00 0.00 0.00 0.00 0.00 0.00 0.00 0.00
0.02 0.02 0.02 0.02 0.02 0.01 0.01 0.01 0.01 0.01 0.01 0.01 0.02 0.02 0.02 0.01 0.01 0.01 0.00 0.00 0.00 0.00 0.00 0.00 0.00 0.00 0.00 0.00 0.00 0.00 0.00 0.00 0.00 0.00 0.00 0.00 0.00 0.00
0.02 0.02 0.02 0.02 0.01 0.01 0.00 0.00 0.00 0.00 0.00 0.00 0.00 0.00 0.00 0.00 0.00 0.00 0.00 0.00 0.00 0.00 0.00 0.00 0.00 0.00 0.00 0.00 0.00 0.00 0.00 0.00 0.00 0.00 0.00 0.00 0.00 0.00
0.02 0.01 0.01 0.01 0.01 0.00 0.00 0.00 0.00 0.00 0.00 0.00 0.00 0.00 0.00 0.00 0.00 0.00 0.00 0.00 0.00 0.00 0.00 0.00 0.00 0.00 0.00 0.00 0.00 0.00 0.00 0.00 0.00 0.00 0.00 0.00 0.00 0.00
0.01 0.01 0.01 0.00 0.00 0.00 0.00 0.00 0.00 0.00 0.00 0.00 0.00 0.00 0.00 0.00 0.00 0.00 0.00 0.00 0.00 0.00 0.00 0.00 0.00 0.00 0.00 0.00 0.00 0.00 0.00 0.00 0.00 0.00 0.00 0.00 0.00 0.00
0.01 0.01 0.01 0.00 0.01 0.01 0.00 0.00 0.00 0.00 0.00 0.00 0.00 0.00 0.00 0.00 0.00 0.00 0.00 0.00 0.00 0.00 0.00 0.00 0.00 0.00 0.00 0.00 0.00 0.00 0.00 0.00 0.00 0.00 0.00 0.00 0.00 0.00
MSLP
1018.63 1018.92 1019.24 1019.56 1019.86 1020.12 1020.34 1020.52 1020.66 1020.78 1020.90 1021.02 1021.15 1021.28 1021.41 1021.53 1021.64 1021.74 1021.85 1021.96 1022.11 1022.28 1022.49 1022.72 1022.95 1023.16 1023.32 1023.42 1023.46 1023.44 1023.39 1023.31 1023.24 1023.18 1023.15 1023.12 1023.09 1023.02
1018.41 1018.68 1018.97 1019.25 1019.53 1019.79 1020.04 1020.27 1020.51 1020.75 1021.00 1021.26 1021.51 1021.75 1021.96 1022.13 1022.25 1022.35 1022.42 1022.51 1022.62 1022.77 1022.96 1023.20 1023.45 1023.69 1023.89 1024.03 1024.11 1024.11 1024.07 1023.99 1023.91 1023.83 1023.76 1023.70 1023.63 1023.52
1018.27 1018.53 1018.79 1019.05 1019.31 1019.56 1019.83 1020.12 1020.44 1020.79 1021.16 1021.54 1021.92 1022.26 1022.55 1022.77 1022.92 1023.01 1023.07 1023.13 1023.21 1023.34 1023.52 1023.75 1024.01 1024.27 1024.51 1024.68 1024.78 1024.80 1024.76 1024.67 1024.56 1024.45 1024.35 1024.24 1024.13 1023.98
1018.20 1018.47 1018.73 1018.98 1019.23 1019.49 1019.77 1020.10 1020.48 1020.91 1021.37 1021.86 1022.34 1022.77 1023.13 1023.40 1023.58 1023.69 1023.74 1023.79 1023.85 1023.96 1024.14 1024.36 1024.63 1024.89 1025.13 1025.31 1025.41 1025.43 1025.37 1025.26 1025.12 1024.97 1024.82 1024.67 1024.52 1024.33
1018.22 1018.52 1018.80 1019.06 1019.31 1019.58 1019.88 1020.23 1020.65 1021.13 1021.66 1022.21 1022.76 1023.25 1023.66 1023.98 1024.19 1024.32 1024.39 1024.44 1024.50 1024.61 1024.77 1024.99 1025.25 1025.50 1025.73 1025.89 1025.96 1025.95 1025.86 1025.71 1025.52 1025.32 1025.12 1024.93 1024.73 1024.51
1018.33 1018.68 1019.00 1019.28 1019.56 1019.84 1020.15 1020.52 1020.95 1021.46 1022.01 1022.59 1023.17 1023.69 1024.14 1024.48 1024.73 1024.88 1024.98 1025.05 1025.13 1025.24 1025.41 1025.62 1025.86 1026.09 1026.28 1026.40 1026.43 1026.36 1026.21 1026.00 1025.75 1025.50 1025.25 1025.01 1024.77 1024.52
1018.52 1018.93 1019.30 1019.63 1019.93 1020.23 1020.56 1020.93 1021.37 1021.87 1022.41 1022.99 1023.56 1024.09 1024.54 1024.91 1025.18 1025.36 1025.50 1025.60 1025.71 1025.84 1026.02 1026.22 1026.43 1026.63 1026.77 1026.83 1026.79 1026.65 1026.43 1026.15 1025.84 1025.53 1025.22 1024.94 1024.68 1024.41
1018.80 1019.26 1019.68 1020.06 1020.40 1020.73 1021.06 1021.43 1021.86 1022.33 1022.85 1023.39 1023.93 1024.43 1024.88 1025.25 1025.54 1025.76 1025.93 1026.07 1026.22 1026.39 1026.57 1026.77 1026.96 1027.11 1027.20 1027.19 1027.08 1026.87 1026.57 1026.22 1025.84 1025.47 1025.12 1024.80 1024.51 1024.24
1019.14 1019.65 1020.11 1020.53 1020.91 1021.26 1021.61 1021.98 1022.38 1022.82 1023.29 1023.78 1024.28 1024.74 1025.16 1025.53 1025.83 1026.08 1026.29 1026.48 1026.66 1026.86 1027.06 1027.26 1027.43 1027.54 1027.57 1027.50 1027.32 1027.04 1026.67 1026.26 1025.83 1025.40 1025.02 1024.67 1024.37 1024.09
1019.54 1020.07 1020.56 1021.01 1021.42 1021.80 1022.16 1022.52 1022.90 1023.31 1023.73 1024.17 1024.61 1025.03 1025.42 1025.77 1026.07 1026.34 1026.58 1026.81 1027.03 1027.26 1027.48 1027.68 1027.83 1027.92 1027.90 1027.78 1027.54 1027.21 1026.79 1026.33 1025.85 1025.40 1024.99 1024.63 1024.31 1024.03
1019.97 1020.51 1021.01 1021.48 1021.91 1022.31 1022.68 1023.04 1023.40 1023.77 1024.15 1024.55 1024.93 1025.31 1025.67 1025.99 1026.29 1026.57 1026.83 1027.09 1027.34 1027.59 1027.82 1028.02 1028.17 1028.23 1028.19 1028.04 1027.77 1027.40 1026.95 1026.47 1025.97 1025.50 1025.07 1024.70 1024.37 1024.08
1020.42 1020.94 1021.45 1021.92 1022.36 1022.77 1023.15 1023.51 1023.87 1024.22 1024.57 1024.92 1025.27 1025.61 1025.93 1026.23 1026.52 1026.80 1027.06 1027.33 1027.59 1027.85 1028.09 1028.29 1028.43 1028.48 1028.43 1028.27 1027.99 1027.61 1027.16 1026.67 1026.17 1025.69 1025.26 1024.87 1024.54 1024.24
1020.88 1021.38 1021.87 1022.34 1022.78 1023.19 1023.58 1023.95 1024.30 1024.64 1024.97 1025.30 1025.62 1025.93 1026.22 1026.50 1026.77 1027.03 1027.29 1027.55 1027.80 1028.06 1028.29 1028.48 1028.62 1028.67 1028.62 1028.46 1028.19 1027.82 1027.39 1026.91 1026.42 1025.94 1025.50 1025.11 1024.77 1024.45
1021.34 1021.81 1022.27 1022.73 1023.17 1023.58 1023.97 1024.34 1024.70 1025.03 1025.37 1025.68 1025.99 1026.27 1026.55 1026.80 1027.04 1027.28 1027.51 1027.75 1027.98 1028.21 1028.43 1028.60 1028.72 1028.77 1028.73 1028.58 1028.33 1027.99 1027.58 1027.13 1026.65 1026.18 1025.74 1025.34 1024.97 1024.64
1021.79 1022.23 1022.67 1023.11 1023.53 1023.93 1024.32 1024.70 1025.06 1025.41 1025.74 1026.06 1026.36 1026.64 1026.89 1027.13 1027.34 1027.55 1027.74 1027.94 1028.13 1028.32 1028.50 1028.65 1028.76 1028.80 1028.76 1028.62 1028.39 1028.08 1027.70 1027.27 1026.81 1026.34 1025.89 1025.47 1025.09 1024.73
1022.23 1022.64 1023.05 1023.46 1023.86 1024.25 1024.64 1025.01 1025.38 1025.74 1026.09 1026.41 1026.72 1027.00 1027.25 1027.46 1027.65 1027.82 1027.97 1028.12 1028.26 1028.40 1028.54 1028.65 1028.72 1028.74 1028.70 1028.57 1028.36 1028.07 1027.70 1027.28 1026.83 1026.37 1025.91 1025.47 1025.06 1024.67
1022.64 1023.02 1023.40 1023.78 1024.15 1024.52 1024.90 1025.27 1025.64 1026.01 1026.38 1026.72 1027.04 1027.32 1027.57 1027.77 1027.94 1028.07 1028.19 1028.28 1028.37 1028.46 1028.53 1028.60 1028.63 1028.63 1028.57 1028.43 1028.23 1027.94 1027.58 1027.17 1026.72 1026.25 1025.78 1025.31 1024.87 1024.45
1023.00 1023.35 1023.70 1024.04 1024.38 1024.73 1025.08 1025.45 1025.82 1026.20 1026.58 1026.95 1027.28 1027.58 1027.83 1028.03 1028.19 1028.30 1028.37 1028.42 1028.46 1028.49 1028.51 1028.52 1028.51 1028.47 1028.39 1028.24 1028.02 1027.73 1027.37 1026.95 1026.49 1026.01 1025.51 1025.02 1024.55 1024.11
1023.28 1023.60 1023.91 1024.21 1024.52 1024.83 1025.17 1025.52 1025.90 1026.29 1026.68 1027.07 1027.43 1027.74 1028.01 1028.22 1028.36 1028.46 1028.50 1028.52 1028.51 1028.50 1028.47 1028.44 1028.39 1028.31 1028.19 1028.02 1027.78 1027.48 1027.11 1026.68 1026.21 1025.71 1025.19 1024.68 1024.19 1023.72
1023.48 1023.76 1024.02 1024.28 1024.55 1024.83 1025.15 1025.49 1025.86 1026.26 1026.67 1027.07 1027.45 1027.79 1028.07 1028.29 1028.44 1028.53 1028.57 1028.57 1028.54 1028.49 1028.43 1028.36 1028.27 1028.16 1028.02 1027.82 1027.56 1027.24 1026.86 1026.42 1025.93 1025.42 1024.88 1024.35 1023.84 1023.35
1023.56 1023.80 1024.02 1024.24 1024.47 1024.72 1025.01 1025.35 1025.72 1026.12 1026.54 1026.96 1027.36 1027.72 1028.02 1028.25 1028.42 1028.51 1028.55 1028.54 1028.50 1028.44 1028.36 1028.27 1028.17 1028.04 1027.87 1027.66 1027.39 1027.06 1026.67 1026.21 1025.72 1025.19 1024.65 1024.11 1023.58 1023.08
1023.53 1023.72 1023.90 1024.08 1024.28 1024.51 1024.79 1025.11 1025.48 1025.88 1026.31 1026.74 1027.16 1027.53 1027.85 1028.10 1028.27 1028.39 1028.44 1028.44 1028.40 1028.34 1028.27 1028.17 1028.06 1027.93 1027.76 1027.54 1027.27 1026.93 1026.54 1026.08 1025.59 1025.06 1024.51 1023.97 1023.44 1022.93
1023.39 1023.54 1023.69 1023.84 1024.01 1024.23 1024.49 1024.81 1025.18 1025.58 1026.02 1026.45 1026.87 1027.25 1027.58 1027.84 1028.03 1028.15 1028.22 1028.23 1028.22 1028.17 1028.11 1028.03 1027.93 1027.81 1027.65 1027.44 1027.17 1026.84 1026.46 1026.01 1025.52 1025.00 1024.47 1023.92 1023.39 1022.88
Thickness
5730 5729 5728 5728 5729 5729 5727 5723 5714 5703 5701 5704 5704 5705 5704 5703 5700 5698 5695 5692 5689 5686 5683 5681 5678 5676 5673 5671 5669 5667 5665 5663 5661 5660 5658 5657 5656 5656
5726 5725 5724 5725 5725 5725 5724 5722 5718 5710 5699 5699 5698 5698 5696 5694 5691 5689 5686 5683 5681 5678 5675 5671 5669 5667 5664 5662 5659 5656 5654 5653 5651 5649 5648 5646 5645 5644
5722 5721 5720 5720 5719 5719 5718 5716 5713 5709 5698 5692 5691 5689 5687 5685 5682 5679 5676 5674 5671 5668 5664 5661 5659 5656 5654 5651 5648 5645 5643 5641 5639 5637 5635 5634 5632 5631
5716 5715 5714 5714 5712 5712 5710 5708 5706 5703 5697 5686 5681 5679 5677 5676 5673 5670 5666 5663 5660 5657 5654 5651 5648 5646 5642 5639 5636 5633 5630 5628 5626 5624 5622 5620 5618 5616
5711 5709 5708 5707 5704 5703 5702 5700 5697 5695 5690 5682 5674 5670 5668 5665 5662 5659 5656 5653 5650 5646 5643 5640 5637 5634 5630 5627 5624 5621 5618 5615 5612 5610 5607 5605 5603 5600
5704 5702 5701 5700 5697 5696 5693 5691 5688 5684 5679 5673 5666 5661 5657 5654 5652 5647 5643 5641 5638 5635 5632 5628 5624 5621 5618 5614 5611 5608 5604 5601 5598 5595 5592 5590 5588 5585
5695 5694 5693 5692 5691 5689 5686 5682 5679 5674 5668 5662 5655 5650 5646 5642 5639 5636 5632 5629 5626 5622 5619 5615 5612 5608 5604 5601 5597 5593 5590 5586 5583 5580 5577 5574 5572 5569
5686 5683 5682 5681 5680 5678 5676 5673 5670 5665 5658 5652 5645 5640 5635 5632 5630 5627 5622 5617 5612 5610 5606 5601 5598 5594 5591 5587 5583 5579 5576 5572 5568 5565 5562 5559 5556 5553
5678 5675 5673 5670 5668 5666 5663 5660 5656 5653 5651 5645 5637 5631 5626 5624 5620 5616 5611 5606 5600 5597 5593 5586 5583 5580 5577 5573 5570 5565 5561 5558 5554 5550 5547 5544 5540 5537
5669 5667 5664 5660 5658 5655 5652 5647 5643 5640 5637 5633 5628 5622 5618 5615 5611 5606 5601 5595 5589 5585 5581 5572 5568 5565 5563 5560 5556 5551 5547 5543 5540 5536 5533 5529 5526 5523
5659 5656 5654 5651 5648 5645 5641 5636 5631 5627 5624 5620 5616 5612 5608 5604 5601 5595 5588 5582 5574 5570 5567 5561 5554 5550 5548 5545 5542 5538 5534 5530 5526 5523 5519 5516 5513 5510
5648 5645 5643 5641 5637 5634 5631 5626 5620 5614 5612 5608 5603 5600 5596 5592 5588 5584 5578 5570 5562 5556 5553 5548 5542 5536 5531 5530 5528 5525 5521 5517 5514 5510 5507 5504 5501 5498
5638 5634 5631 5629 5626 5624 5620 5616 5611 5606 5601 5596 5591 5587 5583 5579 5575 5571 5566 5561 5553 5546 5543 5538 5530 5524 5518 5514 5514 5513 5509 5506 5502 5499 5496 5493 5490 5486
5630 5625 5622 5619 5616 5613 5610 5606 5601 5596 5590 5584 5578 5573 5569 5565 5561 5558 5554 5550 5544 5538 5533 5528 5521 5514 5507 5502 5499 5499 5498 5495 5492 5488 5485 5483 5480 5477
5620 5616 5612 5609 5605 5601 5598 5594 5590 5585 5578 5572 5566 5560 5556 5553 5550 5546 5542 5537 5533 5528 5523 5518 5512 5506 5499 5493 5489 5486 5484 5484 5482 5478 5476 5473 5471 5468
5609 5604 5601 5598 5595 5590 5586 5582 5577 5573 5567 5561 5555 5550 5546 5542 5538 5534 5528 5523 5518 5515 5513 5508 5503 5498 5491 5487 5481 5478 5475 5472 5472 5470 5467 5466 5464 5461
5599 5594 5589 5585 5581 5576 5573 5569 5565 5561 5555 5550 5544 5540 5535 5531 5526 5522 5517 5512 5506 5502 5499 5498 5495 5491 5486 5481 5475 5472 5469 5466 5465 5463 5459 5457 5457 5456
5590 5584 5579 5574 5570 5566 5562 5558 5554 5549 5545 5540 5534 5530 5525 5520 5515 5511 5507 5502 5497 5492 5489 5487 5484 5480 5476 5475 5472 5466 5463 5460 5459 5457 5453 5449 5449 5451
5579 5574 5569 5565 5561 5556 5552 5548 5544 5539 5535 5530 5525 5520 5516 5511 5507 5502 5498 5494 5489 5485 5482 5479 5475 5469 5463 5461 5464 5464 5458 5456 5454 5451 5449 5445 5443 5445
5569 5565 5560 5556 5552 5548 5544 5539 5535 5530 5525 5521 5516 5511 5507 5503 5498 5494 5490 5486 5481 5477 5474 5471 5468 5464 5459 5456 5455 5456 5457 5452 5449 5446 5445 5443 5442 5442
5560 5556 5552 5549 5545 5540 5536 5531 5526 5521 5517 5512 5508 5503 5499 5495 5490 5486 5482 5479 5475 5470 5467 5464 5464 5462 5458 5454 5449 5450 5452 5451 5447 5443 5440 5438 5436 5434
5552 5548 5544 5540 5537 5532 5528 5523 5518 5513 5508 5504 5500 5495 5492 5488 5483 5479 5475 5471 5467 5463 5461 5459 5459 5457 5453 5448 5445 5444 5445 5446 5446 5443 5439 5435 5430 5427
5544 5540 5536 5532 5529 5525 5520 5516 5511 5506 5501 5497 5492 5488 5484 5480 5476 5472 5468 5465 5461 5458 5455 5453 5452 5450 5447 5444 5441 5440 5440 5440 5439 5437 5437 5435 5432 5429